Regional Weather Roundup
Issued by NWS

Home | Current Version | Previous Version | Graphics & Text | Print | Product List | Glossary On
Versions: 1 2 3 4 5 6 7 8 9 10 11 12 13 14 15 16 17 18 19 20 21 22 23 24 25 26 27 28 29 30 31 32 33 34 35 36 37 38 39 40 41 42 43 44 45 46 47 48 49 50
000
ASUS43 KDMX 240906
RWRIA

WEATHER ROUNDUP FOR IOWA
NATIONAL WEATHER SERVICE DES MOINES IA
400 AM CDT SUN SEP 24 2017

NOTE: "FAIR" INDICATES FEW OR NO CLOUDS BELOW 12,000 FEET WITH NO
SIGNIFICANT WEATHER AND/OR OBSTRUCTIONS TO VISIBILITY.

* - THESE STATIONS ARE NOT NWS STATIONS...THUS NOT UNDER NWS
QUALITY CONTROL.  THEY ALSO DO NOT REPORT WEATHER SUCH
AS PRECIPITATION OR FOG.

IAZ001>003-012>014-020>022-031>034-043>046-241000-
   NORTHWEST IOWA

CITY           SKY/WX    TMP DP  RH WIND       PRES   REMARKS
CARROLL *      CLEAR     64  64 100 SE5       29.94S
CHEROKEE *     CLEAR     65  64  98 CALM      29.92S
DENISON *      CLEAR     72  66  83 S10       29.94S
LE MARS *      CLEAR     64  64 100 S5        29.90R
ORANGE CITY *  CLEAR     70  66  88 S7        29.91S
SHELDON *      CLEAR     70  64  83 S8G15     29.89S
SIOUX CITY     CLEAR     60  59  96 E5        29.89S
SPENCER        PTCLDY    67  63  87 S6        29.93S
STORM LAKE *   CLEAR     66  64  94 S7        29.94S
$$

IAZ055>058-069>071-079>083-090>094-241000-
   SOUTHWEST IOWA

CITY           SKY/WX    TMP DP  RH WIND       PRES   REMARKS
ATLANTIC *     CLEAR     72  66  83 VRB7      29.94S
AUDUBON *      CLEAR     63  61  94 CALM      29.96S
CLARINDA *     CLEAR     63  63 100 CALM      29.96S
COUNCIL BLFS * CLEAR     68  68 100 SE6       29.93R
CRESTON *      CLEAR     68  64  88 SE5       29.98S
HARLAN  *      CLEAR     72  66  83 S7        29.97R
LAMONI         CLEAR     71  64  78 SE3       29.97S
RED OAK *      CLEAR     68  64  88 CALM      29.93S
SHENANDOAH *   CLEAR     70  66  88 SE9       29.93S
$$

IAZ047>049-059>061-072>074-084-241000-
   CENTRAL IOWA

CITY           SKY/WX    TMP DP  RH WIND       PRES   REMARKS
AMES           CLEAR     67  65  93 SE5       29.97S
ANKENY *       CLEAR     70  64  83 CALM      29.98S
BOONE *        CLEAR     68  64  88 SE6       29.96S
CHARITON *     CLEAR     68  63  83 SE5       29.97S
DES MOINES     CLEAR     73  64  73 SE7       29.96S
GRINNELL*      CLEAR     66  61  83 CALM      30.01S
KNOXVILLE *    CLEAR     70  63  78 SE5       29.97S
MARSHALLTOWN   CLEAR     71  63  75 SE8       29.98S
NEWTON *       CLEAR     68  63  83 SE6       29.99R
PELLA *        CLEAR     69  62  77 SE3       29.99S
PERRY *          N/A     66  65  96 SE5       29.96S
$$

IAZ004>006-015-016-023>025-035-036-241000-
   NORTH CENTRAL IOWA

CITY           SKY/WX    TMP DP  RH WIND       PRES   REMARKS
ALGONA *       CLEAR     70  66  88 SE8       29.95S
CLARION *      MOCLDY    70  64  83 SE9       29.97S
ESTHERVILLE    CLEAR     62  62 100 S6        29.93F
FORT DODGE *   CLEAR     73  65  75 SE7       29.96S
MASON CITY     PTCLDY    67  61  81 S8        29.99S
FOREST CITY *    N/A     68  63  83 S8        29.97S
WEBSTER CITY * CLEAR     70  64  83 SE7       29.95S
IOWA FALLS *     N/A     67  63  85 SE6       30.00R
$$

IAZ007>011-017>019-026>030-037>042-050>054-066-241000-
   NORTHEAST IOWA

CITY           SKY/WX    TMP DP  RH WIND       PRES   REMARKS
CEDAR RAPIDS   CLEAR     66  62  87 E6        30.01S
CHARLES CITY * CLEAR     70  64  83 SE8       30.00S
CLINTON *      CLEAR    N/A N/A N/A SE5       30.04S
DECORAH *      CLEAR     70  63  78 SE7       30.01S
DUBUQUE        CLEAR     69  62  78 S5        30.05S
MONTICELLO *   CLEAR     63  61  94 CALM      30.03R
OELWEIN *      CLEAR     68  64  88 SE7       30.02F
WATERLOO       CLEAR     73  61  65 S8        29.98F
$$

IAZ064-065-067-068-078-241000-
   EAST CENTRAL IOWA

CITY           SKY/WX    TMP DP  RH WIND       PRES   REMARKS
DAVENPORT      CLEAR     68  63  84 SE7       30.05S
IOWA CITY      CLEAR     66  62  87 CALM      30.02S
MUSCATINE *    CLEAR     64  63  94 CALM      30.02S FOG
QUAD CITIES    CLEAR     70  62  76 CALM      30.02S
$$

IAZ062-063-075>077-085>089-095>099-241000-
   SOUTHEAST IOWA

CITY           SKY/WX    TMP DP  RH WIND       PRES   REMARKS
BURLINGTON     CLEAR     69  61  75 CALM      30.01S
FAIRFIELD *    CLEAR     64  61  88 E5        30.00S
FORT MADISON * CLEAR     70  61  73 SE3       30.02S
KEOKUK *       CLEAR     68  61  77 E5        30.00S
OSKALOOSA *      N/A     67  62  83 SE6       29.99F
OTTUMWA        CLEAR     70  63  78 SE7       29.98F
WASHINGTON *   CLEAR     63  61  94 E5        30.02S
$$

ABBREVIATIONS USED IN REMARKS
   TC - TEMPERATURES IN CELSIUS
  WCI - WIND CHILL INDEX
   HX - HEAT INDEX
  VSB - VISIBILITY
$$





USA.gov is the U.S. government's official web portal to all federal, state and local government web resources and services.